Regional Weather Roundup
Issued by NWS

Home | Current Version | Previous Version | Graphics & Text | Print | Product List | Glossary On
Versions: 1 2 3 4 5 6 7 8 9 10 11 12 13 14 15 16 17 18 19 20 21 22 23 24 25 26 27 28 29 30 31 32 33 34 35 36 37 38 39 40 41 42 43 44 45 46 47 48 49 50
000
ASUS45 KBOU 221207
RWRCO

WEATHER ROUNDUP FOR COLORADO
NATIONAL WEATHER SERVICE DENVER/BOULDER CO
500 AM MST SAT NOV 22 2014

NOTE: "FAIR" INDICATES FEW OR NO CLOUDS BELOW 12000 FEET WITH NO
SIGNIFICANT WEATHER AND/OR OBSTRUCTIONS TO VISIBILITY.

COZ001>005-013-030-031-221300-
...NORTHWEST COLORADO...

CITY           SKY/WX    TMP DP  RH WIND       PRES   REMARKS
CRAIG          CLEAR     17  12  80 CALM      30.01F
HAYDEN         CLEAR     23  16  74 E12       30.00F WCI  12
MEEKER         CLEAR     36  18  48 VRB6      30.00F
MOUNT WERNER   NOT AVBL
STEAMBOAT SPGS CLEAR     13  11  92 CALM      30.03S
WALDEN         MOCLDY    32  14  47 S21G26    29.96F WCI  20
$$

COZ006>008-011-221300-
...WEST CENTRAL VALLEYS...

CITY           SKY/WX    TMP DP  RH WIND       PRES   REMARKS
GRAND JUNCTION CLEAR     21  15  78 E8        30.08F WCI  11
MONTROSE       CLEAR     23  17  78 S6        30.11F WCI  16
EAGLE          PTCLDY    18  16  93 CALM      30.11F
RIFLE          CLEAR     20  16  84 CALM      30.10F
DELTA          CLEAR     25  17  71 E3        30.11F
NUCLA          CLEAR     28  21  74 SE6       30.13F WCI  22
$$

COZ017>023-064>068-221300-
...SOUTHWEST COLORADO...

CITY           SKY/WX    TMP DP  RH WIND       PRES   REMARKS
DURANGO        PTCLDY    19  15  84 NE5       30.11F WCI  12
CORTEZ         CLEAR     19  16  88 NE6       30.11F WCI  11
PAGOSA SPRINGS PTCLDY    21  17  83 CALM      30.12F
TELLURIDE      PTCLDY    22  15  74 SE7       30.16S WCI  14
WOLF CREEK PAS CLEAR     18  14  86 SW18      30.14F WCI   2
$$

COZ009-010-012-014-032>034-037-058>063-221300-
...CENTRAL COLORADO...

CITY           SKY/WX    TMP DP  RH WIND       PRES   REMARKS
ASPEN          PTCLDY    16   9  74 S5        30.07F WCI   9
BUENA VISTA    CLEAR     20  11  68 CALM      30.05S
COPPER MTN     PTCLDY    23   3  42 S14G23    30.08F WCI  11
BERTHOUD PASS  FAIR      14  10  85 NW37G47   30.01R WCI  -9
COTTONWOOD PAS CLEAR     32  12  43 W17G32    30.04F WCI  21
GUNNISON       PTCLDY     9   3  78 NE3       30.20S
KREMMLING      PTCLDY    12   9  85 CALM      30.08F
LEADVILLE      PTCLDY    17   6  62 NE8       30.06F WCI   7
MONARCH PASS   PTCLDY    16  12  86 W38       30.18F WCI  -6
SALIDA         CLEAR     28  14  54 CALM      30.11F
SUNLIGHT       CLEAR     21  18  86 CALM      30.10F
WILKERSON PASS PTCLDY    18  10  73 SW20G30   30.01F WCI   1
$$

COZ069>075-221300-
...SAN LUIS VALLEY/SANGRE DE CRISTO MOUNTAINS...

CITY           SKY/WX    TMP DP  RH WIND       PRES   REMARKS
ALAMOSA        PTCLDY    12   8  84 NW5       30.10F WCI   4
LA VETA PASS   CLEAR     23  16  74 S14G28    30.03F WCI  11
SAGUACHE       PTCLDY    21  12  68 NE5       30.11S WCI  15
$$

COZ035-036-038>040-221300-
...NORTHERN COLORADO FRONT RANGE...

CITY           SKY/WX    TMP DP  RH WIND       PRES   REMARKS
DENVER INTL AP CLEAR     38  17  42 SW17      29.82F
DMNS CITY PARK   N/A     41  12  31 SW9G15    29.83F
AURORA         PTCLDY    38  15  39 S14       29.85F
FRONT RANGE AP CLEAR     41  19  42 SW22      29.83F
ERIE MUNI ARPT CLEAR     29  17  59 CALM      29.79F
BOULDER MUN AP CLEAR     37  14  38 NE3       29.79F
CENTENNIAL     CLEAR     41  14  33 SW17      29.85F
BROOMFIELD     CLEAR     37  14  38 S6        29.83F
FORT COLLINS   CLEAR     25  18  74 N7        29.81F WCI  17
LONGMONT       CLEAR     49  17  28 NW7G17    29.79F
$$

COZ041-046-047-076>085-087-088-221300-
...PIKES PEAK/PALMER DIVIDE AND SOUTHERN FOOTHILLS...

CITY           SKY/WX    TMP DP  RH WIND       PRES   REMARKS
COLO. SPRINGS  CLEAR     24  16  71 NE12      29.92F WCI  13
A. F. ACADEMY  CLEAR     24  13  63 VRB1      29.91F
ELLICOTT       CLEAR     25  16  68 NW3       29.91F
FALCON         NOT AVBL
FORT CARSON    CLEAR     28  17  62 N10       29.90F WCI  19
LIMON          CLEAR     17  13  84 CALM      29.89F
MONUMENT HILL  CLEAR     34   9  35 SW14      29.91F WCI  24
TRINIDAD       CLEAR     33  16  49 W14       29.96F WCI  23
$$

COZ042>045-048>051-090-091-221300-
...NORTHEAST COLORADO...

CITY           SKY/WX    TMP DP  RH WIND       PRES   REMARKS
GREELEY ARPT   PTCLDY    18  10  73 CALM      29.82F
AKRON          CLEAR     41  19  41 SW13      29.82F
BURLINGTON     CLEAR     32  19  58 SW10      29.88F WCI  24
WRAY           CLEAR     33  21  61 W12       29.85F WCI  24
STERLING       CLEAR     23  19  86 SW5       29.82F WCI  17
HOLYOKE        CLEAR     27  19  74 SW8       29.82F WCI  18
FORT MORGAN    CLEAR     26  20  79 W10       29.83F WCI  15
$$

COZ086-089-092>099-221300-
...SOUTHEAST COLORADO...

CITY           SKY/WX    TMP DP  RH WIND       PRES   REMARKS
PUEBLO         CLEAR     26  22  84 SW6       29.92F WCI  19
LA JUNTA       CLEAR     31  25  78 SW10      29.92F WCI  22
LAMAR          CLEAR     22  20  92 W6        29.91F WCI  14
SPRINGFIELD      N/A     29  24  82 W8        29.90F WCI  21
$$



USA.gov is the U.S. government's official web portal to all federal, state and local government web resources and services.